VIR21E EGLL-KBOS

Flight info

Callsign VIR21E
Flight time 6h 8m
Altitude 36000
Route CPT L9 BUCGO DCT FELCA DCT OFSOX DCT BANBA DCT TOBOR/M082F360 NATC ELSIR/N0462F380 DCT TUSKY DCT EURRO OOSHN5
Aircraft A339/H-SDE1E2E3FGHIJ2J3J4J5M1RWXY/LB1D1

Departure

Time 2026-05-06 11:38
Airport London Heathrow Airport (EGLL)

Arrival

Time 2026-05-06 17:46
Airport Boston Logan International Airport (KBOS)
Time Latitude Longitude Altitude Speed Heading
2026-05-06 11:18 51.46845 -0.48027 93 ft 0 kts 269°
2026-05-06 11:26 51.46845 -0.48026 91 ft 1 kts 269°
2026-05-06 11:27 51.46845 -0.48007 92 ft 2 kts 269°
2026-05-06 11:27 51.46845 -0.47978 91 ft 3 kts 268°
2026-05-06 11:27 51.46846 -0.47944 91 ft 3 kts 265°
2026-05-06 11:27 51.46848 -0.47911 94 ft 3 kts 255°
2026-05-06 11:28 51.46854 -0.47878 91 ft 3 kts 224°
2026-05-06 11:28 51.46871 -0.47862 91 ft 3 kts 181°
2026-05-06 11:28 51.46873 -0.47862 91 ft 0 kts 181°
2026-05-06 11:32 51.46867 -0.47863 91 ft 3 kts 181°
2026-05-06 11:32 51.46814 -0.47865 94 ft 12 kts 181°
2026-05-06 11:32 51.46766 -0.47867 92 ft 0 kts 181°
2026-05-06 11:33 51.46757 -0.47865 92 ft 3 kts 176°
2026-05-06 11:33 51.46731 -0.47913 92 ft 10 kts 254°
2026-05-06 11:33 51.46741 -0.48030 91 ft 11 kts 273°
2026-05-06 11:33 51.46742 -0.48092 91 ft 0 kts 271°
2026-05-06 11:34 51.46742 -0.48095 91 ft 1 kts 271°
2026-05-06 11:34 51.46743 -0.48107 91 ft 2 kts 271°
2026-05-06 11:34 51.46743 -0.48132 91 ft 3 kts 271°
2026-05-06 11:34 51.46744 -0.48207 91 ft 12 kts 271°
2026-05-06 11:35 51.46747 -0.48394 94 ft 20 kts 269°
2026-05-06 11:35 51.46743 -0.48610 91 ft 18 kts 268°
2026-05-06 11:35 51.46716 -0.48724 93 ft 9 kts 215°
2026-05-06 11:35 51.46658 -0.48753 94 ft 8 kts 193°
2026-05-06 11:36 51.46594 -0.48777 93 ft 11 kts 193°
2026-05-06 11:36 51.46520 -0.48782 94 ft 10 kts 161°
2026-05-06 11:36 51.46484 -0.48710 95 ft 8 kts 117°
2026-05-06 11:36 51.46478 -0.48622 95 ft 8 kts 89°
2026-05-06 11:37 51.46477 -0.48511 94 ft 23 kts 92°
2026-05-06 11:37 51.46452 -0.47800 90 ft 102 kts 89°
2026-05-06 11:37 51.46478 -0.46319 101 ft 162 kts 89°
2026-05-06 11:37 51.46508 -0.44351 461 ft 185 kts 86°
2026-05-06 11:38 51.46515 -0.42166 962 ft 204 kts 91°
2026-05-06 11:38 51.46017 -0.40028 1790 ft 210 kts 132°
2026-05-06 11:38 51.44656 -0.39064 2297 ft 232 kts 182°
2026-05-06 11:38 51.43131 -0.39890 2676 ft 245 kts 219°
2026-05-06 11:39 51.41946 -0.41923 3139 ft 254 kts 236°
2026-05-06 11:39 51.40994 -0.44327 3766 ft 253 kts 249°
2026-05-06 11:39 51.40614 -0.47051 4336 ft 252 kts 272°
2026-05-06 11:39 51.40721 -0.49960 4965 ft 251 kts 282°
2026-05-06 11:40 51.41010 -0.52711 5660 ft 249 kts 285°
2026-05-06 11:40 51.41344 -0.55406 6386 ft 248 kts 285°
2026-05-06 11:40 51.41678 -0.58129 7041 ft 251 kts 284°
2026-05-06 11:40 51.42015 -0.60916 7617 ft 256 kts 284°
2026-05-06 11:41 51.42347 -0.63739 8278 ft 258 kts 284°
2026-05-06 11:41 51.42678 -0.66558 8918 ft 261 kts 283°
2026-05-06 11:41 51.43016 -0.69440 9544 ft 264 kts 283°
2026-05-06 11:41 51.43358 -0.72357 10171 ft 267 kts 282°
2026-05-06 11:42 51.43704 -0.75286 10693 ft 271 kts 282°
2026-05-06 11:42 51.44064 -0.78251 11396 ft 269 kts 283°
2026-05-06 11:42 51.44445 -0.81211 11989 ft 272 kts 284°
2026-05-06 11:42 51.45138 -0.84080 12378 ft 279 kts 296°
2026-05-06 11:43 51.45965 -0.86903 13026 ft 280 kts 296°
2026-05-06 11:43 51.46797 -0.89751 13636 ft 283 kts 295°
2026-05-06 11:43 51.47618 -0.92600 14168 ft 286 kts 295°
2026-05-06 11:44 51.49280 -0.98453 15345 ft 288 kts 294°
2026-05-06 11:44 51.50111 -1.01407 15911 ft 291 kts 294°
2026-05-06 11:44 51.50946 -1.04372 16492 ft 291 kts 294°
2026-05-06 11:44 51.51957 -1.07962 17194 ft 293 kts 294°
2026-05-06 11:45 51.55384 -1.20183 19088 ft 306 kts 294°
2026-05-06 11:45 51.58917 -1.32794 21010 ft 313 kts 293°
2026-05-06 11:45 51.62833 -1.45642 22563 ft 330 kts 298°
2026-05-06 11:45 51.67295 -1.59079 24100 ft 344 kts 297°
2026-05-06 11:46 51.70832 -1.73294 25528 ft 349 kts 276°
2026-05-06 11:46 51.71901 -1.89086 26840 ft 358 kts 276°
2026-05-06 11:46 51.73057 -2.05225 28211 ft 365 kts 276°
2026-05-06 11:46 51.74203 -2.21729 29251 ft 380 kts 276°
2026-05-06 11:47 51.75392 -2.39225 29568 ft 412 kts 276°
2026-05-06 11:47 51.76635 -2.57955 30667 ft 422 kts 276°
2026-05-06 11:47 51.77869 -2.77016 31873 ft 428 kts 275°
2026-05-06 11:47 51.79082 -2.96057 33160 ft 430 kts 275°
2026-05-06 11:48 51.80256 -3.15399 34384 ft 431 kts 275°
2026-05-06 11:48 51.81413 -3.34760 35328 ft 434 kts 275°
2026-05-06 11:48 51.82577 -3.54357 36032 ft 442 kts 277°
2026-05-06 11:48 51.85184 -3.74178 36075 ft 454 kts 281°
2026-05-06 11:49 51.89081 -4.04905 36027 ft 462 kts 281°
2026-05-06 11:49 51.90512 -4.16316 36020 ft 463 kts 281°
2026-05-06 11:50 51.93060 -4.36857 36028 ft 462 kts 281°
2026-05-06 11:50 51.95546 -4.57211 36022 ft 462 kts 281°
2026-05-06 11:51 51.98834 -4.84628 36059 ft 456 kts 280°
2026-05-06 11:51 52.02530 -5.25080 35967 ft 458 kts 265°
2026-05-06 11:52 51.99613 -5.66224 35972 ft 460 kts 264°
2026-05-06 11:52 51.96545 -6.07482 36002 ft 461 kts 263°
2026-05-06 11:53 51.95699 -6.27942 36008 ft 460 kts 276°
2026-05-06 11:53 51.97726 -6.48413 36021 ft 460 kts 279°
2026-05-06 11:53 52.01682 -6.89329 36023 ft 461 kts 278°
2026-05-06 11:54 52.05514 -7.30549 36039 ft 461 kts 278°
2026-05-06 11:54 52.09220 -7.72018 35981 ft 464 kts 278°
2026-05-06 11:55 52.12789 -8.13676 35965 ft 466 kts 278°
2026-05-06 11:55 52.16213 -8.55433 35961 ft 468 kts 278°
2026-05-06 11:56 52.17863 -8.76228 36062 ft 467 kts 278°
2026-05-06 11:56 52.19486 -8.97240 36013 ft 469 kts 278°
2026-05-06 11:56 52.22660 -9.39669 36026 ft 471 kts 278°
2026-05-06 11:57 52.23715 -9.54279 36009 ft 473 kts 278°
2026-05-06 11:57 52.24822 -9.69856 36018 ft 474 kts 278°
2026-05-06 11:58 52.25570 -9.80563 36035 ft 474 kts 278°
2026-05-06 11:58 52.26403 -9.92674 36157 ft 472 kts 278°
2026-05-06 11:59 52.26764 -9.98005 36274 ft 470 kts 278°
2026-05-06 11:59 52.27157 -10.03814 36415 ft 469 kts 278°
2026-05-06 11:59 52.27560 -10.09833 36817 ft 462 kts 278°
2026-05-06 11:59 52.27908 -10.15052 37001 ft 461 kts 278°
2026-05-06 12:00 52.28595 -10.25458 37052 ft 465 kts 278°
2026-05-06 12:00 52.29285 -10.36061 37050 ft 469 kts 277°
2026-05-06 12:01 52.29960 -10.46613 37048 ft 471 kts 277°
2026-05-06 12:01 52.30635 -10.57300 37053 ft 472 kts 277°
2026-05-06 12:02 52.31298 -10.67950 37053 ft 473 kts 277°
2026-05-06 12:03 52.32542 -10.88379 37052 ft 474 kts 277°
2026-05-06 12:03 52.34150 -11.15747 37060 ft 474 kts 277°
2026-05-06 12:04 52.34755 -11.26320 36599 ft 471 kts 277°
2026-05-06 12:04 52.35358 -11.37041 36065 ft 474 kts 277°
2026-05-06 12:04 52.36544 -11.58635 36054 ft 477 kts 277°
2026-05-06 12:05 52.37698 -11.80349 36053 ft 478 kts 277°
2026-05-06 12:05 52.38805 -12.01996 36048 ft 478 kts 277°
2026-05-06 12:06 52.39655 -12.19174 36079 ft 477 kts 277°
2026-05-06 12:06 52.40180 -12.30008 36071 ft 476 kts 277°
2026-05-06 12:07 52.40694 -12.40846 36067 ft 476 kts 277°
2026-05-06 12:07 52.41195 -12.51612 36047 ft 476 kts 277°
2026-05-06 12:08 52.41688 -12.62440 36052 ft 475 kts 277°
2026-05-06 12:08 52.42169 -12.73215 36066 ft 475 kts 277°
2026-05-06 12:09 52.42642 -12.84032 36062 ft 475 kts 277°
2026-05-06 12:09 52.43106 -12.94868 36048 ft 476 kts 277°
2026-05-06 12:10 52.43558 -13.05665 36062 ft 475 kts 277°
2026-05-06 12:10 52.43998 -13.16428 36055 ft 475 kts 277°
2026-05-06 12:11 52.44433 -13.27274 36064 ft 475 kts 277°
2026-05-06 12:11 52.44856 -13.38100 36059 ft 475 kts 277°
2026-05-06 12:12 52.45268 -13.48860 36061 ft 476 kts 277°
2026-05-06 12:12 52.45672 -13.59707 36060 ft 475 kts 277°
2026-05-06 12:13 52.46065 -13.70503 36072 ft 474 kts 276°
2026-05-06 12:13 52.46448 -13.81316 36069 ft 473 kts 276°
2026-05-06 12:14 52.46818 -13.92049 36068 ft 473 kts 276°
2026-05-06 12:14 52.47181 -14.02833 36064 ft 473 kts 276°
2026-05-06 12:15 52.47534 -14.13614 36059 ft 472 kts 276°
2026-05-06 12:15 52.47874 -14.24326 36060 ft 472 kts 276°
2026-05-06 12:16 52.48208 -14.35119 36057 ft 472 kts 276°
2026-05-06 12:16 52.48529 -14.45857 36056 ft 472 kts 276°
2026-05-06 12:17 52.48841 -14.56574 36055 ft 472 kts 276°
2026-05-06 12:17 52.49148 -14.67371 36058 ft 472 kts 276°
2026-05-06 12:18 52.49447 -14.78061 36054 ft 472 kts 275°
2026-05-06 12:18 52.49740 -14.88832 36056 ft 472 kts 275°
2026-05-06 12:19 52.50024 -14.99607 36057 ft 472 kts 275°
2026-05-06 12:19 52.50932 -15.10144 36056 ft 467 kts 286°
2026-05-06 12:20 52.52413 -15.20551 36051 ft 467 kts 285°
2026-05-06 12:20 52.53749 -15.30967 36051 ft 468 kts 284°
2026-05-06 12:21 52.55010 -15.41481 36051 ft 468 kts 283°
2026-05-06 12:21 52.56243 -15.51952 36049 ft 468 kts 283°
2026-05-06 12:22 52.57477 -15.62502 36056 ft 469 kts 283°
2026-05-06 12:22 52.58699 -15.73016 36061 ft 469 kts 283°
2026-05-06 12:23 52.59911 -15.83530 36054 ft 469 kts 283°
2026-05-06 12:23 52.61115 -15.94063 36056 ft 469 kts 283°
2026-05-06 12:24 52.62305 -16.04562 36053 ft 469 kts 283°
2026-05-06 12:24 52.63493 -16.15136 36063 ft 469 kts 283°
2026-05-06 12:25 52.64672 -16.25700 36064 ft 467 kts 283°
2026-05-06 12:25 52.65828 -16.36172 36059 ft 467 kts 282°
2026-05-06 12:26 52.66982 -16.46708 36051 ft 466 kts 282°
2026-05-06 12:26 52.68119 -16.57169 36048 ft 466 kts 282°
2026-05-06 12:27 52.69256 -16.67731 36046 ft 466 kts 282°
2026-05-06 12:27 52.70374 -16.78194 36046 ft 466 kts 282°
2026-05-06 12:28 52.71488 -16.88716 36038 ft 466 kts 282°
2026-05-06 12:28 52.72592 -16.99246 36036 ft 466 kts 282°
2026-05-06 12:29 52.73689 -17.09809 36057 ft 466 kts 282°
2026-05-06 12:29 52.74773 -17.20321 36073 ft 465 kts 282°
2026-05-06 12:30 52.75842 -17.30801 36063 ft 465 kts 281°
2026-05-06 12:30 52.76908 -17.41328 36034 ft 464 kts 281°
2026-05-06 12:31 52.77964 -17.51870 36049 ft 464 kts 281°
2026-05-06 12:31 52.79011 -17.62411 36054 ft 464 kts 281°
2026-05-06 12:32 52.80042 -17.72901 36050 ft 464 kts 281°
2026-05-06 12:32 52.81070 -17.83461 36042 ft 464 kts 281°
2026-05-06 12:33 52.82088 -17.94004 36040 ft 464 kts 280°
2026-05-06 12:33 52.83094 -18.04518 36044 ft 465 kts 280°
2026-05-06 12:34 52.84092 -18.15073 36045 ft 465 kts 280°
2026-05-06 12:34 52.85085 -18.25667 36046 ft 465 kts 280°
2026-05-06 12:35 52.86059 -18.36177 36045 ft 464 kts 280°
2026-05-06 12:35 52.86870 -18.45008 36044 ft 464 kts 280°
2026-05-06 12:36 52.87992 -18.57319 36045 ft 465 kts 279°
2026-05-06 12:36 52.88942 -18.67883 36046 ft 465 kts 279°
2026-05-06 12:37 52.89728 -18.76710 36044 ft 465 kts 279°
2026-05-06 12:37 52.90816 -18.89051 36044 ft 465 kts 279°
2026-05-06 12:38 52.91586 -18.97869 36044 ft 465 kts 279°
2026-05-06 12:38 52.92504 -19.08486 36037 ft 465 kts 278°
2026-05-06 12:39 52.93409 -19.19061 36036 ft 465 kts 278°
2026-05-06 12:39 52.94311 -19.29722 36045 ft 465 kts 278°
2026-05-06 12:40 52.95194 -19.40296 36046 ft 465 kts 278°
2026-05-06 12:40 52.96075 -19.50949 36046 ft 465 kts 278°
2026-05-06 12:41 52.96947 -19.61617 36045 ft 465 kts 278°
2026-05-06 12:41 52.97806 -19.72214 36038 ft 466 kts 277°
2026-05-06 12:42 52.98661 -19.82906 36037 ft 466 kts 277°
2026-05-06 12:42 52.99511 -19.93579 36046 ft 466 kts 277°
2026-05-06 12:43 53.00173 -20.04250 36046 ft 466 kts 272°
2026-05-06 12:43 53.00566 -20.14960 36046 ft 466 kts 274°
2026-05-06 12:44 53.01020 -20.25726 36038 ft 467 kts 274°
2026-05-06 12:44 53.01459 -20.36444 36049 ft 467 kts 273°
2026-05-06 12:45 53.01885 -20.47257 36046 ft 467 kts 273°
2026-05-06 12:46 53.02498 -20.63376 36053 ft 467 kts 273°
2026-05-06 12:46 53.02887 -20.74089 36046 ft 467 kts 273°
2026-05-06 12:47 53.03269 -20.84869 36040 ft 467 kts 272°
2026-05-06 12:47 53.03641 -20.95689 36042 ft 468 kts 272°
2026-05-06 12:48 53.04002 -21.06484 36048 ft 468 kts 272°
2026-05-06 12:48 53.04353 -21.17245 36048 ft 468 kts 272°
2026-05-06 12:49 53.04696 -21.28081 36048 ft 468 kts 272°
2026-05-06 12:49 53.05027 -21.38851 36049 ft 468 kts 272°
2026-05-06 12:50 53.05351 -21.49668 36059 ft 468 kts 272°
2026-05-06 12:50 53.05663 -21.60443 36056 ft 468 kts 272°
2026-05-06 12:51 53.05966 -21.71263 36053 ft 468 kts 271°
2026-05-06 12:51 53.06257 -21.81993 36051 ft 467 kts 271°
2026-05-06 12:52 53.06542 -21.92834 36050 ft 468 kts 271°
2026-05-06 12:52 53.06815 -22.03593 36052 ft 468 kts 271°
2026-05-06 12:53 53.07250 -22.21704 36063 ft 468 kts 271°
2026-05-06 12:53 53.07607 -22.37469 36068 ft 468 kts 271°
2026-05-06 12:54 53.08444 -22.78606 36021 ft 470 kts 270°
2026-05-06 12:54 53.09132 -23.19559 35993 ft 472 kts 269°
2026-05-06 12:55 53.09292 -23.30464 36063 ft 471 kts 269°
2026-05-06 12:55 53.09441 -23.41315 36061 ft 471 kts 269°
2026-05-06 12:56 53.09582 -23.52237 36063 ft 471 kts 269°
2026-05-06 12:56 53.09714 -23.63192 36054 ft 473 kts 269°
2026-05-06 12:57 53.09833 -23.74078 36062 ft 473 kts 269°
2026-05-06 12:57 53.09944 -23.85081 36063 ft 474 kts 269°
2026-05-06 12:58 53.10044 -23.96025 36073 ft 474 kts 269°
2026-05-06 12:58 53.10134 -24.06943 36072 ft 474 kts 269°
2026-05-06 12:59 53.10216 -24.17958 36064 ft 475 kts 268°
2026-05-06 12:59 53.10286 -24.28903 36066 ft 475 kts 268°
2026-05-06 13:00 53.10346 -24.39894 36067 ft 475 kts 268°
2026-05-06 13:00 53.10396 -24.50909 36071 ft 475 kts 268°
2026-05-06 13:01 53.10436 -24.61919 36069 ft 475 kts 268°
2026-05-06 13:01 53.10466 -24.72907 36066 ft 476 kts 268°
2026-05-06 13:02 53.10486 -24.83864 36068 ft 476 kts 268°
2026-05-06 13:02 53.10496 -24.94870 36068 ft 476 kts 268°
2026-05-06 13:03 53.10495 -25.05899 36067 ft 476 kts 268°
2026-05-06 13:03 53.10485 -25.16866 36069 ft 476 kts 268°
2026-05-06 13:04 53.10464 -25.27909 36067 ft 476 kts 267°
2026-05-06 13:04 53.10433 -25.38885 36066 ft 475 kts 267°
2026-05-06 13:05 53.10392 -25.49896 36066 ft 475 kts 267°
2026-05-06 13:05 53.10341 -25.60912 36066 ft 475 kts 267°
2026-05-06 13:06 53.10280 -25.71855 36062 ft 475 kts 267°
2026-05-06 13:06 53.10208 -25.82890 36066 ft 475 kts 267°
2026-05-06 13:07 53.10127 -25.93892 36066 ft 475 kts 267°
2026-05-06 13:07 53.10036 -26.04852 36055 ft 475 kts 267°
2026-05-06 13:08 53.09934 -26.15862 36057 ft 475 kts 267°
2026-05-06 13:08 53.09822 -26.26822 36063 ft 475 kts 267°
2026-05-06 13:09 53.09699 -26.37855 36061 ft 475 kts 267°
2026-05-06 13:09 53.09568 -26.48796 36065 ft 475 kts 267°
2026-05-06 13:10 53.09426 -26.59793 36056 ft 474 kts 267°
2026-05-06 13:10 53.09274 -26.70767 36055 ft 474 kts 266°
2026-05-06 13:11 53.09112 -26.81703 36048 ft 474 kts 266°
2026-05-06 13:11 53.08940 -26.92687 36042 ft 474 kts 266°
2026-05-06 13:12 53.08759 -27.03593 36042 ft 474 kts 266°
2026-05-06 13:12 53.08566 -27.14578 36050 ft 474 kts 266°
2026-05-06 13:13 53.08365 -27.25492 36044 ft 474 kts 266°
2026-05-06 13:13 53.08152 -27.36480 36037 ft 474 kts 266°
2026-05-06 13:14 53.07930 -27.47392 36036 ft 474 kts 266°
2026-05-06 13:14 53.07695 -27.58414 36040 ft 474 kts 266°
2026-05-06 13:15 53.07455 -27.69319 36042 ft 474 kts 266°
2026-05-06 13:15 53.07202 -27.80316 36037 ft 474 kts 266°
2026-05-06 13:16 53.06941 -27.91198 36034 ft 474 kts 266°
2026-05-06 13:16 53.06667 -28.02174 36031 ft 474 kts 266°
2026-05-06 13:17 53.06384 -28.13144 36036 ft 474 kts 266°
2026-05-06 13:17 53.06093 -28.24030 36030 ft 474 kts 266°
2026-05-06 13:18 53.05789 -28.35025 36031 ft 474 kts 266°
2026-05-06 13:18 53.05478 -28.45913 36025 ft 474 kts 265°
2026-05-06 13:19 53.05154 -28.56885 36025 ft 474 kts 265°
2026-05-06 13:19 53.04822 -28.67800 36026 ft 474 kts 265°
2026-05-06 13:20 53.04478 -28.78776 36013 ft 475 kts 265°
2026-05-06 13:20 53.04125 -28.89721 36016 ft 475 kts 265°
2026-05-06 13:21 53.03761 -29.00685 36012 ft 475 kts 265°
2026-05-06 13:21 53.03388 -29.11617 36015 ft 475 kts 265°
2026-05-06 13:22 53.03002 -29.22609 36015 ft 475 kts 265°
2026-05-06 13:22 53.02609 -29.33538 36007 ft 476 kts 265°
2026-05-06 13:23 53.02204 -29.44527 36010 ft 476 kts 265°
2026-05-06 13:23 53.01791 -29.55456 36006 ft 476 kts 265°
2026-05-06 13:24 53.01372 -29.66416 35997 ft 475 kts 265°
2026-05-06 13:24 53.00945 -29.77397 35998 ft 476 kts 265°
2026-05-06 13:25 53.00512 -29.88324 36003 ft 476 kts 265°
2026-05-06 13:25 53.00061 -29.99327 35995 ft 475 kts 264°
2026-05-06 13:26 52.99770 -30.10236 35992 ft 476 kts 269°
2026-05-06 13:26 52.99750 -30.21236 35993 ft 476 kts 269°
2026-05-06 13:27 52.99685 -30.32207 35999 ft 474 kts 268°
2026-05-06 13:27 52.99601 -30.41278 35998 ft 471 kts 268°
2026-05-06 13:28 52.99464 -30.53944 35999 ft 471 kts 268°
2026-05-06 13:28 52.99355 -30.62981 36005 ft 470 kts 268°
2026-05-06 13:29 52.99210 -30.73880 36010 ft 471 kts 268°
2026-05-06 13:29 52.99055 -30.84711 35986 ft 471 kts 268°
2026-05-06 13:30 52.98890 -30.95536 36001 ft 470 kts 268°
2026-05-06 13:30 52.98715 -31.06425 35984 ft 471 kts 268°
2026-05-06 13:31 52.98531 -31.17263 36019 ft 471 kts 268°
2026-05-06 13:31 52.98335 -31.28151 35985 ft 472 kts 268°
2026-05-06 13:32 52.98130 -31.39016 36022 ft 472 kts 268°
2026-05-06 13:32 52.97915 -31.49870 35999 ft 473 kts 268°
2026-05-06 13:33 52.97690 -31.60801 36025 ft 472 kts 268°
2026-05-06 13:33 52.97455 -31.71666 36018 ft 473 kts 267°
2026-05-06 13:34 52.97211 -31.82532 36029 ft 472 kts 267°
2026-05-06 13:34 52.96955 -31.93449 36031 ft 473 kts 267°
2026-05-06 13:35 52.96688 -32.04380 36023 ft 474 kts 267°
2026-05-06 13:35 52.96414 -32.15250 36037 ft 474 kts 267°
2026-05-06 13:36 52.96127 -32.26215 36039 ft 475 kts 267°
2026-05-06 13:36 52.95831 -32.37140 36037 ft 475 kts 267°
2026-05-06 13:37 52.95524 -32.48090 36045 ft 475 kts 267°
2026-05-06 13:37 52.95207 -32.59021 36054 ft 475 kts 267°
2026-05-06 13:38 52.94879 -32.70010 36039 ft 476 kts 267°
2026-05-06 13:38 52.94543 -32.80925 36062 ft 476 kts 266°
2026-05-06 13:39 52.94195 -32.91903 36051 ft 476 kts 266°
2026-05-06 13:39 52.93838 -33.02836 36064 ft 476 kts 266°
2026-05-06 13:40 52.93469 -33.13821 36063 ft 476 kts 266°
2026-05-06 13:40 52.93092 -33.24738 36068 ft 476 kts 266°
2026-05-06 13:41 52.92705 -33.35666 36068 ft 476 kts 266°
2026-05-06 13:41 52.92307 -33.46622 36074 ft 476 kts 266°
2026-05-06 13:42 52.91900 -33.57549 36084 ft 475 kts 266°
2026-05-06 13:42 52.91481 -33.68521 36068 ft 476 kts 266°
2026-05-06 13:43 52.91054 -33.79409 36083 ft 475 kts 266°
2026-05-06 13:43 52.90616 -33.90356 36083 ft 476 kts 266°
2026-05-06 13:44 52.90170 -34.01248 36081 ft 476 kts 266°
2026-05-06 13:44 52.89709 -34.12250 36076 ft 477 kts 266°
2026-05-06 13:45 52.89242 -34.23167 36084 ft 477 kts 266°
2026-05-06 13:45 52.88519 -34.39576 36092 ft 477 kts 266°
2026-05-06 13:46 52.88026 -34.50503 36089 ft 477 kts 266°
2026-05-06 13:46 52.87520 -34.61491 36090 ft 477 kts 266°
2026-05-06 13:47 52.87008 -34.72389 36093 ft 477 kts 266°
2026-05-06 13:47 52.86481 -34.83379 36096 ft 477 kts 266°
2026-05-06 13:48 52.85947 -34.94292 36106 ft 476 kts 266°
2026-05-06 13:48 52.85403 -35.05206 36108 ft 476 kts 266°
2026-05-06 13:49 52.84851 -35.16105 36102 ft 476 kts 266°
2026-05-06 13:49 52.84286 -35.27051 36102 ft 476 kts 266°
2026-05-06 13:50 52.83713 -35.37946 36101 ft 476 kts 266°
2026-05-06 13:50 52.83131 -35.48809 36093 ft 476 kts 266°
2026-05-06 13:51 52.82536 -35.59721 36107 ft 475 kts 266°
2026-05-06 13:51 52.81938 -35.70544 36108 ft 474 kts 266°
2026-05-06 13:52 52.81324 -35.81445 36102 ft 474 kts 266°
2026-05-06 13:52 52.80706 -35.92248 36101 ft 474 kts 266°
2026-05-06 13:53 52.80075 -36.03102 36101 ft 474 kts 266°
2026-05-06 13:53 52.79435 -36.13896 36107 ft 473 kts 266°
2026-05-06 13:54 52.78784 -36.24769 36105 ft 473 kts 266°
2026-05-06 13:54 52.78128 -36.35535 36103 ft 473 kts 266°
2026-05-06 13:55 52.77458 -36.46374 36103 ft 473 kts 266°
2026-05-06 13:55 52.76782 -36.57127 36102 ft 473 kts 266°
2026-05-06 13:56 52.76091 -36.67960 36106 ft 472 kts 266°
2026-05-06 13:56 52.75398 -36.78686 36105 ft 471 kts 266°
2026-05-06 13:57 52.74695 -36.89412 36106 ft 471 kts 266°
2026-05-06 13:57 52.73978 -37.00201 36102 ft 471 kts 266°
2026-05-06 13:58 52.73255 -37.10921 36103 ft 471 kts 265°
2026-05-06 13:58 52.72519 -37.21674 36101 ft 470 kts 266°
2026-05-06 13:59 52.71779 -37.32343 36108 ft 470 kts 266°
2026-05-06 13:59 52.71027 -37.43075 36109 ft 470 kts 266°
2026-05-06 14:00 52.70270 -37.53720 36112 ft 469 kts 265°
2026-05-06 14:00 52.69497 -37.64452 36109 ft 469 kts 265°
2026-05-06 14:01 52.68721 -37.75080 36106 ft 469 kts 265°
2026-05-06 14:01 52.67930 -37.85778 36115 ft 468 kts 266°
2026-05-06 14:02 52.67133 -37.96437 36115 ft 468 kts 265°
2026-05-06 14:02 52.66330 -38.07040 36118 ft 468 kts 265°
2026-05-06 14:03 52.65514 -38.17683 36109 ft 468 kts 265°
2026-05-06 14:03 52.64693 -38.28268 36112 ft 468 kts 265°
2026-05-06 14:04 52.63857 -38.38918 36102 ft 468 kts 265°
2026-05-06 14:04 52.63014 -38.49533 36108 ft 468 kts 265°
2026-05-06 14:05 52.62162 -38.60131 36111 ft 468 kts 265°
2026-05-06 14:05 52.61300 -38.70731 36114 ft 468 kts 265°
2026-05-06 14:06 52.60426 -38.81361 36120 ft 468 kts 265°
2026-05-06 14:06 52.59545 -38.91941 36117 ft 467 kts 265°
2026-05-06 14:07 52.58653 -39.02542 36122 ft 466 kts 265°
2026-05-06 14:07 52.57761 -39.13053 36122 ft 466 kts 265°
2026-05-06 14:08 52.56853 -39.23627 36121 ft 466 kts 265°
2026-05-06 14:08 52.55936 -39.34188 36121 ft 466 kts 265°
2026-05-06 14:09 52.55016 -39.44681 36121 ft 466 kts 265°
2026-05-06 14:09 52.54080 -39.55206 36130 ft 464 kts 265°
2026-05-06 14:10 52.53145 -39.65697 36130 ft 464 kts 265°
2026-05-06 14:10 52.52210 -39.76134 36125 ft 463 kts 265°
2026-05-06 14:11 52.51260 -39.86629 36125 ft 463 kts 265°
2026-05-06 14:11 52.50223 -39.97083 36123 ft 465 kts 263°
2026-05-06 14:12 52.48591 -40.07317 36138 ft 467 kts 256°
2026-05-06 14:12 52.46517 -40.17440 36136 ft 466 kts 257°
2026-05-06 14:13 52.44536 -40.27491 36112 ft 465 kts 257°
2026-05-06 14:13 52.42545 -40.37580 36109 ft 465 kts 257°
2026-05-06 14:14 52.40553 -40.47600 36133 ft 464 kts 257°
2026-05-06 14:14 52.38540 -40.57648 36134 ft 462 kts 258°
2026-05-06 14:15 52.36526 -40.67650 36126 ft 462 kts 258°
2026-05-06 14:15 52.34513 -40.77576 36126 ft 462 kts 258°
2026-05-06 14:16 52.32811 -40.85924 36125 ft 461 kts 257°
2026-05-06 14:16 52.30784 -40.95814 36126 ft 461 kts 257°
2026-05-06 14:17 52.28746 -41.05687 36147 ft 458 kts 258°
2026-05-06 14:17 52.26707 -41.15547 36138 ft 457 kts 258°
2026-05-06 14:18 52.24660 -41.25391 36136 ft 457 kts 258°
2026-05-06 14:18 52.22619 -41.35160 36130 ft 456 kts 258°
2026-05-06 14:19 52.20561 -41.44958 36098 ft 456 kts 258°
2026-05-06 14:19 52.18502 -41.54688 36142 ft 449 kts 258°
2026-05-06 14:20 52.16468 -41.64297 36139 ft 451 kts 258°
2026-05-06 14:20 52.14407 -41.73973 36129 ft 451 kts 258°
2026-05-06 14:21 52.12361 -41.83525 36143 ft 449 kts 258°
2026-05-06 14:21 52.10292 -41.93150 36102 ft 450 kts 258°
2026-05-06 14:22 52.08224 -42.02707 36133 ft 450 kts 258°
2026-05-06 14:22 52.06140 -42.12299 36165 ft 450 kts 258°
2026-05-06 14:23 52.04047 -42.21896 36151 ft 450 kts 258°
2026-05-06 14:23 52.01957 -42.31434 36139 ft 450 kts 258°
2026-05-06 14:24 51.99840 -42.41044 36119 ft 450 kts 258°
2026-05-06 14:24 51.97721 -42.50628 36141 ft 451 kts 258°
2026-05-06 14:25 51.95599 -42.60183 36145 ft 452 kts 257°
2026-05-06 14:25 51.93452 -42.69798 36150 ft 453 kts 257°
2026-05-06 14:26 51.91300 -42.79390 36153 ft 453 kts 257°
2026-05-06 14:26 51.89129 -42.89021 36134 ft 454 kts 257°
2026-05-06 14:27 51.86967 -42.98575 36147 ft 455 kts 257°
2026-05-06 14:27 51.84775 -43.08217 36153 ft 456 kts 257°
2026-05-06 14:28 51.82582 -43.17815 36147 ft 456 kts 257°
2026-05-06 14:28 51.80388 -43.27378 36146 ft 456 kts 257°
2026-05-06 14:29 51.78166 -43.37016 36166 ft 456 kts 257°
2026-05-06 14:29 51.75953 -43.46572 36168 ft 456 kts 257°
2026-05-06 14:30 51.73717 -43.56182 36147 ft 456 kts 257°
2026-05-06 14:30 51.71490 -43.65715 36147 ft 456 kts 257°
2026-05-06 14:31 51.69235 -43.75324 36170 ft 456 kts 256°
2026-05-06 14:31 51.66999 -43.84810 36164 ft 454 kts 256°
2026-05-06 14:32 51.64750 -43.94309 36159 ft 454 kts 256°
2026-05-06 14:32 51.62483 -44.03840 36158 ft 454 kts 256°
2026-05-06 14:33 51.60224 -44.13301 36157 ft 454 kts 256°
2026-05-06 14:33 51.57956 -44.22756 36153 ft 454 kts 256°
2026-05-06 14:34 51.55674 -44.32222 36160 ft 452 kts 256°
2026-05-06 14:34 51.53405 -44.41598 36156 ft 452 kts 256°
2026-05-06 14:35 51.51113 -44.51033 36153 ft 451 kts 256°
2026-05-06 14:35 51.48823 -44.60416 36160 ft 450 kts 256°
2026-05-06 14:36 51.46546 -44.69700 36136 ft 448 kts 255°
2026-05-06 14:36 51.44283 -44.78885 36144 ft 442 kts 255°
2026-05-06 14:37 51.42013 -44.88081 36144 ft 443 kts 255°
2026-05-06 14:37 51.39736 -44.97259 36142 ft 443 kts 255°
2026-05-06 14:38 51.37441 -45.06466 36140 ft 443 kts 255°
2026-05-06 14:38 51.35159 -45.15587 36119 ft 443 kts 255°
2026-05-06 14:39 51.32859 -45.24739 36139 ft 443 kts 255°
2026-05-06 14:39 51.30564 -45.33834 36142 ft 443 kts 255°
2026-05-06 14:40 51.28247 -45.42979 36139 ft 443 kts 255°
2026-05-06 14:40 51.25938 -45.52059 36142 ft 443 kts 255°
2026-05-06 14:41 51.23607 -45.61187 36138 ft 443 kts 254°
2026-05-06 14:41 51.21289 -45.70228 36135 ft 443 kts 254°
2026-05-06 14:42 51.18942 -45.79341 36134 ft 443 kts 254°
2026-05-06 14:42 51.16600 -45.88403 36135 ft 443 kts 254°
2026-05-06 14:43 51.14235 -45.97516 36135 ft 443 kts 253°
2026-05-06 14:43 51.11879 -46.06563 36120 ft 443 kts 253°
2026-05-06 14:44 51.09506 -46.15632 36127 ft 444 kts 253°
2026-05-06 14:45 51.05953 -46.29140 36125 ft 444 kts 253°
2026-05-06 14:45 51.03754 -46.37461 36126 ft 444 kts 253°
2026-05-06 14:46 51.01391 -46.46371 36099 ft 444 kts 252°
2026-05-06 14:46 50.98986 -46.55411 36116 ft 444 kts 252°
2026-05-06 14:47 50.96567 -46.64459 36119 ft 445 kts 252°
2026-05-06 14:47 50.94143 -46.73491 36120 ft 445 kts 252°
2026-05-06 14:48 50.91728 -46.82457 36119 ft 445 kts 252°
2026-05-06 14:48 50.89288 -46.91483 36104 ft 445 kts 252°
2026-05-06 14:49 50.86837 -47.00512 36113 ft 446 kts 252°
2026-05-06 14:49 50.84383 -47.09514 36114 ft 446 kts 251°
2026-05-06 14:50 50.81932 -47.18472 36110 ft 446 kts 251°
2026-05-06 14:50 50.79460 -47.27472 36131 ft 446 kts 251°
2026-05-06 14:51 50.76980 -47.36468 36126 ft 445 kts 251°
2026-05-06 14:51 50.74505 -47.45411 36122 ft 444 kts 251°
2026-05-06 14:52 50.72019 -47.54357 36118 ft 444 kts 251°
2026-05-06 14:52 50.69527 -47.63291 36111 ft 444 kts 251°
2026-05-06 14:53 50.67049 -47.72143 36109 ft 444 kts 251°
2026-05-06 14:53 50.64550 -47.81035 36114 ft 444 kts 251°
2026-05-06 14:54 50.62044 -47.89922 36108 ft 444 kts 251°
2026-05-06 14:54 50.59529 -47.98804 36113 ft 444 kts 250°
2026-05-06 14:55 50.57024 -48.07619 36105 ft 444 kts 250°
2026-05-06 14:55 50.54484 -48.16523 36103 ft 444 kts 250°
2026-05-06 14:56 50.51971 -48.25304 36110 ft 443 kts 250°
2026-05-06 14:56 50.49439 -48.34115 36111 ft 443 kts 250°
2026-05-06 14:57 50.46896 -48.42933 36111 ft 443 kts 250°
2026-05-06 14:57 50.44344 -48.51746 36114 ft 443 kts 250°
2026-05-06 14:58 50.41793 -48.60527 36098 ft 443 kts 250°
2026-05-06 14:58 50.39236 -48.69310 36117 ft 441 kts 249°
2026-05-06 14:59 50.36677 -48.78044 36117 ft 441 kts 249°
2026-05-06 14:59 50.34112 -48.86770 36114 ft 441 kts 249°
2026-05-06 15:00 50.31561 -48.95422 36115 ft 440 kts 249°
2026-05-06 15:00 50.28993 -49.04109 36116 ft 440 kts 248°
2026-05-06 15:01 50.26412 -49.12799 36106 ft 440 kts 248°
2026-05-06 15:01 50.23829 -49.21461 36107 ft 440 kts 248°
2026-05-06 15:02 50.21230 -49.30148 36106 ft 440 kts 248°
2026-05-06 15:02 50.18634 -49.38797 36109 ft 440 kts 248°
2026-05-06 15:03 50.16048 -49.47386 36104 ft 440 kts 248°
2026-05-06 15:03 50.13438 -49.56019 36112 ft 440 kts 248°
2026-05-06 15:04 50.11264 -49.63194 36105 ft 440 kts 248°
2026-05-06 15:04 50.08649 -49.71811 36109 ft 440 kts 248°
2026-05-06 15:05 50.06025 -49.80430 36111 ft 440 kts 247°
2026-05-06 15:05 50.03397 -49.89034 36110 ft 440 kts 247°
2026-05-06 15:06 50.00764 -49.97624 36110 ft 440 kts 247°
2026-05-06 15:06 49.98326 -50.06279 36108 ft 438 kts 252°
2026-05-06 15:07 49.96280 -50.15250 36101 ft 438 kts 252°
2026-05-06 15:07 49.94211 -50.24086 36105 ft 439 kts 252°
2026-05-06 15:08 49.92071 -50.32958 36101 ft 438 kts 251°
2026-05-06 15:08 49.89916 -50.41816 36105 ft 439 kts 251°
2026-05-06 15:09 49.87753 -50.50674 36106 ft 439 kts 251°
2026-05-06 15:09 49.85585 -50.59522 36110 ft 439 kts 251°
2026-05-06 15:10 49.83427 -50.68293 36106 ft 439 kts 251°
2026-05-06 15:10 49.81249 -50.77118 36109 ft 438 kts 251°
2026-05-06 15:11 49.79060 -50.85944 36104 ft 438 kts 251°
2026-05-06 15:11 49.76871 -50.94742 36108 ft 438 kts 250°
2026-05-06 15:12 49.74680 -51.03512 36106 ft 438 kts 250°
2026-05-06 15:12 49.72476 -51.12293 36100 ft 437 kts 250°
2026-05-06 15:13 49.70283 -51.21003 36095 ft 437 kts 250°
2026-05-06 15:13 49.68072 -51.29750 36088 ft 437 kts 250°
2026-05-06 15:14 49.65850 -51.38505 36090 ft 437 kts 250°
2026-05-06 15:14 49.63626 -51.47233 36089 ft 437 kts 250°
2026-05-06 15:15 49.61389 -51.55976 36089 ft 437 kts 250°
2026-05-06 15:15 49.59166 -51.64639 36069 ft 438 kts 249°
2026-05-06 15:16 49.56917 -51.73365 36083 ft 438 kts 249°
2026-05-06 15:16 49.54657 -51.82099 36093 ft 438 kts 249°
2026-05-06 15:17 49.52393 -51.90821 36089 ft 438 kts 249°
2026-05-06 15:17 49.50123 -51.99523 36081 ft 437 kts 248°
2026-05-06 15:18 49.47612 -52.07964 36086 ft 436 kts 246°
2026-05-06 15:18 49.45092 -52.16451 36072 ft 436 kts 246°
2026-05-06 15:19 49.42589 -52.24942 36065 ft 436 kts 246°
2026-05-06 15:19 49.40079 -52.33433 36069 ft 436 kts 246°
2026-05-06 15:20 49.37564 -52.41911 36068 ft 436 kts 246°
2026-05-06 15:20 49.35043 -52.50384 36061 ft 435 kts 246°
2026-05-06 15:21 49.32534 -52.58778 36059 ft 435 kts 246°
2026-05-06 15:21 49.30006 -52.67204 36065 ft 435 kts 246°
2026-05-06 15:22 49.27474 -52.75619 36064 ft 435 kts 246°
2026-05-06 15:22 49.24931 -52.84043 36055 ft 435 kts 246°
2026-05-06 15:23 49.22406 -52.92375 36075 ft 434 kts 245°
2026-05-06 15:23 49.19854 -53.00749 36067 ft 433 kts 245°
2026-05-06 15:24 49.17303 -53.09082 36065 ft 432 kts 245°
2026-05-06 15:24 49.14746 -53.17411 36062 ft 432 kts 245°
2026-05-06 15:25 49.12184 -53.25728 36045 ft 432 kts 245°
2026-05-06 15:25 49.09620 -53.34027 36047 ft 432 kts 245°
2026-05-06 15:26 49.07068 -53.42257 36060 ft 433 kts 245°
2026-05-06 15:26 49.04484 -53.50561 36064 ft 433 kts 245°
2026-05-06 15:27 49.01890 -53.58872 36069 ft 433 kts 244°
2026-05-06 15:27 48.99311 -53.67106 36052 ft 434 kts 244°
2026-05-06 15:28 48.96698 -53.75423 36066 ft 435 kts 244°
2026-05-06 15:28 48.94077 -53.83734 36063 ft 437 kts 244°
2026-05-06 15:29 48.91443 -53.92062 36080 ft 437 kts 244°
2026-05-06 15:29 48.88803 -54.00378 36100 ft 436 kts 244°
2026-05-06 15:30 48.86160 -54.08679 36111 ft 436 kts 244°
2026-05-06 15:30 48.83529 -54.16912 36108 ft 435 kts 244°
2026-05-06 15:31 48.80876 -54.25191 36123 ft 435 kts 244°
2026-05-06 15:31 48.78220 -54.33447 36099 ft 435 kts 244°
2026-05-06 15:32 48.74230 -54.45803 36096 ft 435 kts 243°
2026-05-06 15:32 48.71578 -54.53983 36087 ft 435 kts 243°
2026-05-06 15:33 48.68901 -54.62212 36111 ft 435 kts 243°
2026-05-06 15:33 48.66220 -54.70427 36109 ft 435 kts 243°
2026-05-06 15:34 48.63529 -54.78646 36120 ft 436 kts 243°
2026-05-06 15:34 48.60831 -54.86861 36112 ft 436 kts 243°
2026-05-06 15:35 48.58137 -54.95034 36114 ft 437 kts 243°
2026-05-06 15:35 48.55419 -55.03258 36112 ft 438 kts 243°
2026-05-06 15:36 48.52695 -55.11472 36106 ft 438 kts 243°
2026-05-06 15:36 48.49964 -55.19678 36111 ft 438 kts 243°
2026-05-06 15:37 48.47217 -55.27908 36100 ft 439 kts 242°
2026-05-06 15:37 48.44467 -55.36118 36091 ft 439 kts 242°
2026-05-06 15:38 48.41713 -55.44317 36099 ft 439 kts 242°
2026-05-06 15:38 48.38965 -55.52468 36098 ft 439 kts 242°
2026-05-06 15:39 48.36189 -55.60678 36093 ft 440 kts 242°
2026-05-06 15:39 48.33413 -55.68862 36094 ft 440 kts 242°
2026-05-06 15:40 48.30626 -55.77056 36089 ft 440 kts 242°
2026-05-06 15:40 48.27826 -55.85257 36089 ft 440 kts 242°
2026-05-06 15:41 48.25028 -55.93428 36104 ft 440 kts 242°
2026-05-06 15:41 48.22225 -56.01591 36102 ft 439 kts 242°
2026-05-06 15:42 48.19427 -56.09709 36096 ft 438 kts 242°
2026-05-06 15:42 48.16619 -56.17832 36086 ft 438 kts 242°
2026-05-06 15:43 48.13817 -56.25910 36082 ft 438 kts 242°
2026-05-06 15:43 48.11004 -56.33998 36081 ft 437 kts 242°
2026-05-06 15:44 48.08190 -56.42062 36067 ft 438 kts 242°
2026-05-06 15:44 48.05362 -56.50144 36085 ft 438 kts 242°
2026-05-06 15:45 48.02544 -56.58170 36092 ft 439 kts 242°
2026-05-06 15:45 47.99701 -56.66242 36116 ft 439 kts 242°
2026-05-06 15:46 47.96853 -56.74304 36103 ft 439 kts 242°
2026-05-06 15:46 47.93996 -56.82366 36129 ft 440 kts 242°
2026-05-06 15:47 47.91130 -56.90430 36153 ft 440 kts 242°
2026-05-06 15:47 47.88259 -56.98483 36170 ft 440 kts 242°
2026-05-06 15:48 47.85380 -57.06532 36171 ft 440 kts 242°
2026-05-06 15:48 47.82497 -57.14567 36180 ft 440 kts 242°
2026-05-06 15:49 47.79629 -57.22540 36178 ft 440 kts 242°
2026-05-06 15:49 47.76734 -57.30561 36183 ft 440 kts 242°
2026-05-06 15:50 47.73826 -57.38593 36184 ft 440 kts 242°
2026-05-06 15:50 47.70914 -57.46610 36174 ft 441 kts 242°
2026-05-06 15:51 47.67995 -57.54625 36176 ft 441 kts 242°
2026-05-06 15:51 47.65076 -57.62618 36180 ft 441 kts 242°
2026-05-06 15:52 47.62155 -57.70588 36177 ft 442 kts 242°
2026-05-06 15:52 47.59209 -57.78603 36176 ft 442 kts 242°
2026-05-06 15:53 47.56265 -57.86586 36181 ft 441 kts 242°
2026-05-06 15:53 47.53316 -57.94564 36173 ft 441 kts 242°
2026-05-06 15:54 47.50389 -58.02459 36158 ft 440 kts 242°
2026-05-06 15:54 47.47432 -58.10408 36151 ft 440 kts 242°
2026-05-06 15:55 47.44975 -58.16996 36145 ft 440 kts 242°
2026-05-06 15:55 47.42007 -58.24929 36139 ft 441 kts 242°
2026-05-06 15:56 47.39034 -58.32856 36139 ft 441 kts 242°
2026-05-06 15:56 47.36075 -58.40723 36131 ft 441 kts 242°
2026-05-06 15:57 47.33089 -58.48636 36131 ft 441 kts 242°
2026-05-06 15:57 47.30093 -58.56550 36125 ft 441 kts 242°
2026-05-06 15:58 47.27099 -58.64438 36123 ft 442 kts 242°
2026-05-06 15:58 47.24095 -58.72330 36120 ft 442 kts 242°
2026-05-06 15:59 47.21127 -58.80102 36111 ft 434 kts 242°
2026-05-06 15:59 47.18159 -58.87855 36105 ft 436 kts 242°
2026-05-06 16:00 47.15186 -58.95597 36100 ft 434 kts 242°
2026-05-06 16:00 47.12209 -59.03329 36104 ft 434 kts 242°
2026-05-06 16:01 47.09224 -59.11057 36086 ft 435 kts 242°
2026-05-06 16:01 47.06230 -59.18787 36091 ft 435 kts 242°
2026-05-06 16:02 47.03252 -59.26453 36075 ft 435 kts 242°
2026-05-06 16:02 47.00248 -59.34165 36081 ft 436 kts 242°
2026-05-06 16:03 46.97236 -59.41876 36087 ft 436 kts 242°
2026-05-06 16:03 46.94218 -59.49582 36073 ft 436 kts 242°
2026-05-06 16:04 46.91193 -59.57281 36072 ft 436 kts 241°
2026-05-06 16:04 46.88181 -59.64927 36062 ft 436 kts 241°
2026-05-06 16:05 46.85148 -59.72604 36065 ft 436 kts 241°
2026-05-06 16:05 46.82107 -59.80277 36052 ft 436 kts 241°
2026-05-06 16:06 46.79062 -59.87941 36052 ft 436 kts 241°
2026-05-06 16:06 46.76016 -59.95587 36052 ft 435 kts 241°
2026-05-06 16:07 46.72969 -60.03213 36046 ft 435 kts 241°
2026-05-06 16:07 46.69915 -60.10834 36037 ft 435 kts 241°
2026-05-06 16:08 46.66860 -60.18439 36037 ft 434 kts 241°
2026-05-06 16:08 46.63822 -60.25979 36025 ft 434 kts 241°
2026-05-06 16:09 46.60756 -60.33568 36018 ft 435 kts 241°
2026-05-06 16:09 46.57689 -60.41140 36020 ft 435 kts 241°
2026-05-06 16:10 46.54609 -60.48721 36030 ft 435 kts 241°
2026-05-06 16:10 46.51533 -60.56271 36029 ft 434 kts 241°
2026-05-06 16:11 46.48447 -60.63827 36013 ft 435 kts 240°
2026-05-06 16:11 46.45369 -60.71341 36020 ft 436 kts 240°
2026-05-06 16:12 46.42257 -60.78918 36037 ft 437 kts 240°
2026-05-06 16:12 46.39138 -60.86491 36037 ft 437 kts 240°
2026-05-06 16:13 46.36012 -60.94061 36025 ft 438 kts 240°
2026-05-06 16:13 46.32873 -61.01641 36042 ft 439 kts 240°
2026-05-06 16:14 46.29750 -61.09159 36042 ft 439 kts 240°
2026-05-06 16:14 46.26594 -61.16741 36053 ft 439 kts 240°
2026-05-06 16:15 46.23440 -61.24295 36038 ft 439 kts 240°
2026-05-06 16:15 46.20275 -61.31850 36043 ft 440 kts 240°
2026-05-06 16:16 46.17104 -61.39402 36049 ft 441 kts 241°
2026-05-06 16:16 46.13915 -61.46980 36049 ft 441 kts 240°
2026-05-06 16:17 46.10721 -61.54548 36044 ft 441 kts 240°
2026-05-06 16:17 46.07525 -61.62096 36040 ft 441 kts 241°
2026-05-06 16:18 46.04339 -61.69605 36044 ft 441 kts 241°
2026-05-06 16:18 46.01136 -61.77132 36044 ft 441 kts 240°
2026-05-06 16:19 45.97924 -61.84660 36045 ft 441 kts 240°
2026-05-06 16:19 45.94706 -61.92180 36033 ft 441 kts 241°
2026-05-06 16:20 45.91481 -61.99696 36043 ft 442 kts 241°
2026-05-06 16:20 45.88255 -62.07197 36044 ft 442 kts 240°
2026-05-06 16:21 45.85039 -62.14655 36044 ft 442 kts 240°
2026-05-06 16:21 45.81799 -62.22141 36049 ft 441 kts 241°
2026-05-06 16:22 45.78564 -62.29603 36046 ft 440 kts 241°
2026-05-06 16:22 45.75329 -62.37047 36051 ft 440 kts 240°
2026-05-06 16:23 45.72079 -62.44502 36044 ft 440 kts 240°
2026-05-06 16:23 45.68831 -62.51933 36032 ft 440 kts 240°
2026-05-06 16:24 45.65604 -62.59299 36034 ft 440 kts 240°
2026-05-06 16:24 45.62346 -62.66710 36036 ft 440 kts 240°
2026-05-06 16:25 45.59088 -62.74106 36039 ft 440 kts 240°
2026-05-06 16:25 45.55822 -62.81500 36044 ft 440 kts 240°
2026-05-06 16:26 45.52552 -62.88881 36040 ft 440 kts 240°
2026-05-06 16:26 45.49277 -62.96258 36049 ft 440 kts 240°
2026-05-06 16:27 45.46019 -63.03573 36050 ft 440 kts 240°
2026-05-06 16:27 45.42715 -63.10977 36054 ft 440 kts 240°
2026-05-06 16:28 45.39447 -63.18282 36024 ft 440 kts 240°
2026-05-06 16:28 45.36152 -63.25627 36037 ft 441 kts 240°
2026-05-06 16:29 45.32836 -63.32998 36060 ft 442 kts 240°
2026-05-06 16:29 45.29523 -63.40343 36060 ft 442 kts 240°
2026-05-06 16:30 45.26756 -63.46464 36048 ft 443 kts 240°
2026-05-06 16:30 45.22865 -63.55048 36045 ft 443 kts 240°
2026-05-06 16:31 45.19525 -63.62397 36064 ft 443 kts 240°
2026-05-06 16:31 45.16209 -63.69674 36070 ft 443 kts 240°
2026-05-06 16:32 45.12860 -63.77003 36065 ft 444 kts 239°
2026-05-06 16:32 45.09522 -63.84293 36062 ft 439 kts 239°
2026-05-06 16:33 45.06188 -63.91553 36048 ft 440 kts 239°
2026-05-06 16:34 45.01192 -64.02396 36042 ft 440 kts 239°
2026-05-06 16:34 44.97849 -64.09630 36035 ft 440 kts 239°
2026-05-06 16:35 44.94487 -64.16886 36044 ft 441 kts 239°
2026-05-06 16:35 44.91117 -64.24143 36052 ft 442 kts 239°
2026-05-06 16:36 44.87736 -64.31402 36056 ft 443 kts 239°
2026-05-06 16:36 44.84350 -64.38653 36046 ft 443 kts 239°
2026-05-06 16:37 44.80959 -64.45895 36033 ft 443 kts 239°
2026-05-06 16:37 44.77585 -64.53087 36043 ft 443 kts 239°
2026-05-06 16:38 44.74183 -64.60318 36054 ft 442 kts 239°
2026-05-06 16:38 44.70789 -64.67516 36051 ft 441 kts 239°
2026-05-06 16:39 44.67392 -64.74701 36046 ft 441 kts 239°
2026-05-06 16:39 44.63995 -64.81870 36047 ft 441 kts 239°
2026-05-06 16:40 44.60613 -64.88987 36054 ft 440 kts 239°
2026-05-06 16:40 44.57210 -64.96132 36052 ft 440 kts 239°
2026-05-06 16:41 44.53802 -65.03270 36046 ft 441 kts 239°
2026-05-06 16:41 44.50386 -65.10407 36057 ft 441 kts 238°
2026-05-06 16:42 44.46960 -65.17547 36061 ft 441 kts 238°
2026-05-06 16:42 44.43532 -65.24672 36070 ft 441 kts 238°
2026-05-06 16:43 44.40118 -65.31745 36074 ft 441 kts 239°
2026-05-06 16:43 44.36686 -65.38847 36066 ft 440 kts 239°
2026-05-06 16:44 44.33263 -65.45916 36069 ft 439 kts 239°
2026-05-06 16:44 44.29834 -65.52976 36066 ft 439 kts 239°
2026-05-06 16:45 44.26408 -65.60000 36073 ft 436 kts 239°
2026-05-06 16:45 44.22999 -65.66992 36064 ft 435 kts 239°
2026-05-06 16:46 44.19595 -65.73954 36058 ft 434 kts 239°
2026-05-06 16:46 44.16208 -65.80847 36060 ft 425 kts 239°
2026-05-06 16:47 44.13437 -65.86481 36067 ft 425 kts 239°
2026-05-06 16:47 44.10074 -65.93327 36058 ft 431 kts 239°
2026-05-06 16:48 44.06663 -66.00237 36061 ft 434 kts 239°
2026-05-06 16:48 44.03269 -66.07087 36066 ft 429 kts 239°
2026-05-06 16:49 43.99872 -66.13934 36067 ft 431 kts 239°
2026-05-06 16:49 43.96469 -66.20780 36071 ft 431 kts 239°
2026-05-06 16:50 43.93057 -66.27627 36059 ft 431 kts 239°
2026-05-06 16:50 43.89647 -66.34454 36058 ft 431 kts 239°
2026-05-06 16:51 43.86225 -66.41291 36052 ft 431 kts 239°
2026-05-06 16:51 43.82824 -66.48078 36037 ft 431 kts 239°
2026-05-06 16:52 43.79403 -66.54899 36033 ft 429 kts 238°
2026-05-06 16:52 43.76035 -66.61580 36026 ft 424 kts 239°
2026-05-06 16:53 43.72641 -66.68320 36005 ft 429 kts 239°
2026-05-06 16:53 43.69207 -66.75111 36021 ft 430 kts 239°
2026-05-06 16:54 43.65786 -66.81854 36018 ft 429 kts 239°
2026-05-06 16:54 43.62377 -66.88563 36017 ft 429 kts 239°
2026-05-06 16:55 43.58948 -66.95296 36018 ft 429 kts 239°
2026-05-06 16:55 43.55664 -67.02144 36004 ft 424 kts 248°
2026-05-06 16:56 43.53581 -67.09695 36002 ft 421 kts 253°
2026-05-06 16:56 43.51624 -67.17314 36005 ft 422 kts 252°
2026-05-06 16:57 43.49450 -67.25212 36003 ft 422 kts 252°
2026-05-06 16:57 43.47333 -67.32721 36003 ft 422 kts 251°
2026-05-06 16:58 43.45203 -67.40249 36003 ft 422 kts 252°
2026-05-06 16:58 43.43068 -67.47778 35995 ft 422 kts 251°
2026-05-06 16:59 43.40935 -67.55282 35997 ft 421 kts 251°
2026-05-06 16:59 43.38798 -67.62779 35997 ft 421 kts 251°
2026-05-06 17:00 43.36655 -67.70270 35998 ft 415 kts 251°
2026-05-06 17:00 43.34554 -67.77592 36002 ft 416 kts 251°
2026-05-06 17:01 43.32433 -67.84977 35991 ft 411 kts 251°
2026-05-06 17:01 43.30330 -67.92266 35990 ft 411 kts 251°
2026-05-06 17:02 43.28218 -67.99568 35993 ft 411 kts 251°
2026-05-06 17:02 43.26102 -68.06861 35982 ft 411 kts 251°
2026-05-06 17:03 43.23981 -68.14149 35982 ft 411 kts 251°
2026-05-06 17:03 43.21872 -68.21376 35995 ft 410 kts 251°
2026-05-06 17:04 43.19746 -68.28642 35972 ft 410 kts 251°
2026-05-06 17:04 43.17616 -68.35902 36004 ft 409 kts 250°
2026-05-06 17:05 43.15495 -68.43108 35987 ft 407 kts 250°
2026-05-06 17:05 43.13372 -68.50301 35976 ft 406 kts 250°
2026-05-06 17:06 43.11267 -68.57413 35963 ft 406 kts 250°
2026-05-06 17:06 43.09142 -68.64576 35955 ft 406 kts 250°
2026-05-06 17:07 43.07012 -68.71733 35963 ft 406 kts 250°
2026-05-06 17:07 43.04879 -68.78880 35964 ft 406 kts 250°
2026-05-06 17:08 43.02747 -68.86010 35968 ft 406 kts 250°
2026-05-06 17:08 43.00607 -68.93144 35944 ft 406 kts 250°
2026-05-06 17:09 42.98460 -69.00273 35948 ft 406 kts 250°
2026-05-06 17:09 42.96310 -69.07398 35951 ft 406 kts 250°
2026-05-06 17:10 42.94149 -69.14538 35940 ft 406 kts 250°
2026-05-06 17:10 42.92002 -69.21620 35937 ft 407 kts 249°
2026-05-06 17:11 42.89831 -69.28757 35932 ft 408 kts 249°
2026-05-06 17:11 42.87647 -69.35914 35934 ft 408 kts 249°
2026-05-06 17:12 42.85464 -69.43048 35936 ft 408 kts 249°
2026-05-06 17:12 42.83272 -69.50194 35936 ft 408 kts 249°
2026-05-06 17:13 42.81077 -69.57326 35936 ft 408 kts 249°
2026-05-06 17:13 42.78880 -69.64450 35931 ft 408 kts 249°
2026-05-06 17:14 42.76677 -69.71572 35909 ft 407 kts 249°
2026-05-06 17:14 42.74894 -69.77323 35909 ft 407 kts 249°
2026-05-06 17:22 42.74620 -69.78206 35900 ft 408 kts 249°
2026-05-06 17:22 42.72412 -69.85309 35890 ft 406 kts 249°
2026-05-06 17:22 42.71319 -69.88817 35652 ft 401 kts 249°
2026-05-06 17:23 42.70230 -69.92312 34962 ft 402 kts 249°
2026-05-06 17:23 42.69135 -69.95831 33972 ft 407 kts 248°
2026-05-06 17:23 42.68021 -69.99404 32809 ft 412 kts 248°
2026-05-06 17:23 42.66900 -70.02989 31623 ft 416 kts 247°
2026-05-06 17:24 42.65765 -70.06615 30716 ft 413 kts 247°
2026-05-06 17:24 42.64608 -70.10162 29760 ft 407 kts 245°
2026-05-06 17:24 42.63409 -70.13568 28727 ft 401 kts 245°
2026-05-06 17:24 42.62241 -70.16977 27736 ft 396 kts 245°
2026-05-06 17:25 42.61202 -70.20419 26738 ft 392 kts 250°
2026-05-06 17:25 42.60454 -70.23949 25868 ft 386 kts 255°
2026-05-06 17:25 42.59980 -70.27528 24876 ft 386 kts 259°
2026-05-06 17:25 42.59769 -70.31177 23898 ft 385 kts 263°
2026-05-06 17:26 42.59628 -70.34800 22856 ft 383 kts 262°
2026-05-06 17:26 42.59473 -70.38358 21967 ft 374 kts 262°
2026-05-06 17:26 42.59311 -70.41861 21038 ft 367 kts 262°
2026-05-06 17:26 42.59149 -70.45283 20109 ft 361 kts 262°
2026-05-06 17:27 42.58988 -70.48619 19196 ft 355 kts 262°
2026-05-06 17:27 42.58829 -70.51923 18301 ft 349 kts 261°
2026-05-06 17:27 42.58637 -70.55175 17343 ft 341 kts 258°
2026-05-06 17:27 42.58216 -70.58314 16345 ft 330 kts 252°
2026-05-06 17:28 42.57589 -70.61242 15361 ft 324 kts 249°
2026-05-06 17:28 42.56936 -70.64139 14407 ft 319 kts 250°
2026-05-06 17:28 42.56486 -70.67068 13405 ft 320 kts 261°
2026-05-06 17:28 42.56674 -70.70077 12396 ft 325 kts 276°
2026-05-06 17:29 42.57549 -70.72948 11535 ft 334 kts 293°
2026-05-06 17:29 42.58975 -70.75357 11262 ft 321 kts 304°
2026-05-06 17:29 42.60816 -70.77036 11036 ft 321 kts 328°
2026-05-06 17:29 42.62991 -70.77605 10824 ft 320 kts 353°
2026-05-06 17:30 42.65139 -70.77011 10489 ft 314 kts 17°
2026-05-06 17:30 42.67117 -70.75744 9817 ft 314 kts 25°
2026-05-06 17:30 42.69043 -70.74347 9089 ft 313 kts 26°
2026-05-06 17:30 42.70952 -70.72952 8453 ft 308 kts 26°
2026-05-06 17:31 42.72800 -70.71599 7855 ft 304 kts 26°
2026-05-06 17:31 42.74679 -70.70321 7256 ft 299 kts 21°
2026-05-06 17:31 42.76565 -70.69165 6695 ft 296 kts 21°
2026-05-06 17:31 42.78447 -70.68077 6083 ft 292 kts 14°
2026-05-06 17:32 42.80387 -70.67398 5414 ft 282 kts 356°
2026-05-06 17:32 42.82239 -70.67690 4846 ft 257 kts 327°
2026-05-06 17:32 42.83650 -70.68922 4263 ft 228 kts 301°
2026-05-06 17:32 42.84601 -70.70584 4057 ft 221 kts 286°
2026-05-06 17:33 42.84964 -70.72491 3994 ft 199 kts 260°
2026-05-06 17:33 42.84632 -70.74249 3991 ft 189 kts 237°
2026-05-06 17:33 42.83788 -70.75549 3992 ft 185 kts 216°
2026-05-06 17:33 42.82629 -70.76280 3996 ft 182 kts 203°
2026-05-06 17:34 42.81458 -70.76871 3924 ft 180 kts 205°
2026-05-06 17:34 42.80304 -70.77502 3702 ft 177 kts 206°
2026-05-06 17:34 42.79159 -70.78157 3276 ft 180 kts 206°
2026-05-06 17:34 42.78006 -70.78832 3037 ft 183 kts 206°
2026-05-06 17:35 42.76865 -70.79478 2993 ft 171 kts 206°
2026-05-06 17:35 42.75737 -70.80117 2995 ft 177 kts 207°
2026-05-06 17:35 42.74618 -70.80763 3005 ft 176 kts 208°
2026-05-06 17:36 42.72308 -70.81979 3000 ft 178 kts 206°
2026-05-06 17:36 42.71183 -70.82627 2998 ft 171 kts 208°
2026-05-06 17:36 42.70158 -70.83240 2996 ft 155 kts 207°
2026-05-06 17:36 42.69207 -70.83781 2997 ft 144 kts 208°
2026-05-06 17:37 42.68260 -70.84333 3006 ft 149 kts 208°
2026-05-06 17:37 42.67345 -70.84871 3004 ft 142 kts 208°
2026-05-06 17:37 42.66409 -70.85414 3009 ft 149 kts 208°
2026-05-06 17:37 42.65456 -70.85939 3011 ft 146 kts 206°
2026-05-06 17:38 42.64506 -70.86409 3006 ft 146 kts 204°
2026-05-06 17:38 42.63540 -70.86856 3008 ft 147 kts 205°
2026-05-06 17:38 42.62903 -70.87184 3003 ft 146 kts 207°
2026-05-06 17:38 42.61695 -70.87909 3009 ft 145 kts 208°
2026-05-06 17:39 42.60732 -70.88474 3015 ft 158 kts 205°
2026-05-06 17:39 42.60043 -70.88847 3000 ft 156 kts 204°
2026-05-06 17:39 42.59070 -70.89325 3004 ft 149 kts 204°
2026-05-06 17:39 42.58069 -70.89834 3007 ft 155 kts 204°
2026-05-06 17:40 42.57063 -70.90359 3010 ft 156 kts 204°
2026-05-06 17:40 42.56058 -70.90883 3006 ft 151 kts 204°
2026-05-06 17:40 42.55133 -70.91369 3007 ft 135 kts 205°
2026-05-06 17:40 42.54235 -70.91841 3005 ft 139 kts 205°
2026-05-06 17:41 42.53313 -70.92273 3007 ft 140 kts 200°
2026-05-06 17:41 42.52409 -70.92749 3009 ft 141 kts 210°
2026-05-06 17:41 42.51487 -70.93240 3001 ft 143 kts 202°
2026-05-06 17:41 42.50538 -70.93697 2800 ft 144 kts 202°
2026-05-06 17:42 42.49609 -70.94150 2589 ft 144 kts 202°
2026-05-06 17:42 42.48690 -70.94598 2396 ft 135 kts 201°
2026-05-06 17:42 42.47837 -70.94992 2182 ft 130 kts 198°
2026-05-06 17:42 42.46959 -70.95278 1976 ft 128 kts 197°
2026-05-06 17:43 42.46127 -70.95703 1729 ft 127 kts 203°
2026-05-06 17:43 42.45355 -70.96186 1479 ft 118 kts 205°
2026-05-06 17:43 42.44602 -70.96636 1237 ft 126 kts 204°
2026-05-06 17:43 42.43798 -70.97095 1032 ft 122 kts 201°
2026-05-06 17:44 42.43030 -70.97437 924 ft 114 kts 195°
2026-05-06 17:44 42.42227 -70.97771 882 ft 123 kts 198°
2026-05-06 17:44 42.41410 -70.98149 819 ft 124 kts 199°
2026-05-06 17:44 42.40632 -70.98512 677 ft 114 kts 198°
2026-05-06 17:45 42.39768 -70.98860 832 ft 141 kts 199°
2026-05-06 17:45 42.38889 -70.99389 524 ft 134 kts 201°
2026-05-06 17:45 42.38021 -70.99737 256 ft 128 kts 196°
2026-05-06 17:45 42.37238 -71.00174 42 ft 118 kts 202°
2026-05-06 17:46 42.36542 -71.00498 35 ft 84 kts 198°
2026-05-06 17:46 42.36177 -71.00642 30 ft 17 kts 180°
2026-05-06 17:46 42.36122 -71.00722 28 ft 12 kts 284°
2026-05-06 17:46 42.36160 -71.00837 30 ft 15 kts 297°
2026-05-06 17:47 42.36204 -71.00971 32 ft 14 kts 292°
2026-05-06 17:47 42.36237 -71.01102 32 ft 15 kts 286°
2026-05-06 17:47 42.36295 -71.01207 31 ft 14 kts 305°
2026-05-06 17:47 42.36351 -71.01335 30 ft 18 kts 297°
2026-05-06 17:48 42.36403 -71.01494 29 ft 18 kts 288°
2026-05-06 17:48 42.36416 -71.01650 29 ft 0 kts 276°
2026-05-06 17:48 42.36416 -71.01660 29 ft 3 kts 276°
2026-05-06 17:48 42.36419 -71.01698 28 ft 5 kts 276°
2026-05-06 17:49 42.36426 -71.01753 29 ft 6 kts 282°
2026-05-06 17:49 42.36431 -71.01783 29 ft 0 kts 282°